Location: Deep South Regional Star Gaze
(30.9929°N, 90.9586°W)
Time: 09:19:10
(UTC-06:00)

Daily predictions for brighter satellites

Satellite Brightness Start Highest point End
(mag) Time Altitude Azimuth Time Altitude Azimuth Time Altitude Azimuth
SJ-12 4.0 17:21:02 10° SSE 17:25:02 56° ENE 17:29:04 10° N
Cosmos 1536 Rocket 3.9 17:21:45 10° S 17:26:11 75° W 17:30:40 10° N
ATLAS 2AS CENTAUR R/B 3.2 17:22:30 10° NNW 17:30:28 81° WSW 17:37:46 10° SSE
Cosmos 494 Rocket 4.2 17:25:29 10° NNW 17:30:46 82° WSW 17:36:01 10° SSE
YAOGAN 1 2.6 17:31:35 10° SSE 17:35:49 62° ENE 17:40:06 10° N
Cosmos 1371 Rocket 4.4 17:31:12 10° S 17:36:14 44° ESE 17:41:18 10° NNE
Cosmos 2297 3.8 17:30:48 10° SSW 17:36:26 81° WNW 17:42:05 10° NNE
SPOT 3 Rocket 3.5 17:34:57 10° SSE 17:40:08 79° ENE 17:45:19 10° N
Okean 1 4.5 17:38:51 10° SSW 17:42:44 47° W 17:46:40 10° N
Nadezhda 3 Rocket 4.0 17:39:02 10° S 17:45:10 73° E 17:51:25 10° N
COSMOS 2487 2.5 17:42:01 10° N 17:45:35 60° ENE 17:49:06 10° SSE
Cosmos 2278 Rocket 4.0 17:41:18 10° WSW 17:46:06 29° WNW 17:50:58 10° N
Cosmos 1346 Rocket 3.5 17:44:41 10° SSW 17:48:31 56° W 17:52:19 10° N
SMAP 3.2 17:45:30 10° S 17:50:08 80° WSW 17:54:48 10° NNW
GRACE-2 4.0 17:49:20 10° SSE 17:52:01 49° E 17:54:43 10° N
GRACE-1 4.0 17:49:44 10° SSE 17:52:27 51° E 17:55:09 10° N
Orbus 7S? 4.4 17:50:54 10° S 17:53:08 17° SE 17:54:06 15° E
Cosmos 1666 3.9 17:53:35 10° NNE 17:56:34 21° ENE 17:59:33 10° SE
CZ-3B R/B 4.3 17:51:56 10° WSW 17:57:11 25° SSW 17:59:13 10° SE
Genesis I 3.3 17:54:35 10° NNW 17:58:30 79° WSW 18:02:22 10° SSE
SL-24 DEB 4.5 17:55:45 10° N 18:00:27 73° W 18:05:05 10° SSW
NOSS 7 (H) 4.3 17:58:03 10° SSW 18:01:37 70° ESE 18:03:56 18° NE
Delta 2 Rocket 3.8 18:00:04 10° WNW 18:03:32 40° N 18:05:38 22° ENE
SKYMED 2 3.5 18:00:53 10° NNE 18:05:15 82° ESE 18:09:35 10° S
IDEFIX/ARIANE 42P 3.5 18:04:24 10° S 18:09:26 51° W 18:14:29 10° NNW
Cosmos 1833 Rocket 2.7 18:04:23 10° N 18:09:55 55° ENE 18:15:24 10° SE
Intercosmos 25 2.9 18:10:48 10° N 18:13:59 83° E 18:17:59 10° S
Cosmos 1892 Rocket 3.9 18:10:43 10° SSE 18:14:46 40° E 18:17:15 20° NE
Okean 1-7 Rocket 4.3 18:12:35 10° SSW 18:17:00 56° W 18:21:25 10° N
Cosmos 2082 Rocket 2.1 18:11:30 10° NNW 18:17:11 78° ENE 18:22:52 10° SSE
Cosmos 1743 2.6 18:14:22 10° N 18:18:13 89° WNW 18:22:03 10° S
FALCON 9 R/B 3.8 17:49:35 10° W 18:19:29 77° N 18:24:36 25° ENE
Meteor 1-28 Rocket 3.0 18:21:16 16° NNE 18:24:18 80° E 18:28:04 10° S
Cosmos 1484 Rocket 2.9 18:22:35 10° S 18:26:19 69° W 18:30:01 10° NNW
Cosmos 1726 Rocket 4.0 18:23:24 10° N 18:27:36 40° E 18:31:46 10° SSE
Okean 2 3.3 18:23:30 10° S 18:27:36 66° E 18:30:08 22° NNE
Meteor 2-8 Rocket 4.3 18:28:06 10° S 18:34:09 83° E 18:40:16 10° N
Cosmos 1934 Rocket 3.9 18:30:43 10° N 18:36:57 72° E 18:43:15 10° SSE
Cosmos 1606 Rocket 3.5 18:42:16 10° N 18:46:46 86° E 18:51:13 10° S
Meteor 1-15 Rocket 4.2 18:41:04 10° N 18:46:55 68° E 18:52:37 10° SSE
Cosmos 2369 Rocket 2.2 18:44:25 10° S 18:49:55 56° ESE 18:50:46 51° ENE
Meteor 2-9 Rocket 4.1 18:49:26 10° N 18:54:49 78° W 19:00:06 10° S
NOAA 12 4.2 18:57:53 10° S 19:03:09 75° WSW 19:08:25 10° NNW
Cosmos 407 Rocket 4.5 18:59:34 10° N 19:02:22 33° N 19:02:22 33° N
NOSS 3-4 (A) 3.7 18:59:21 10° NNW 19:06:32 75° ENE 19:11:08 26° SE
NOSS 3-4 (C) 3.7 18:59:27 10° NNW 19:06:38 74° ENE 19:10:59 28° SE
Cosmos 1340 3.9 19:06:24 10° SSW 19:09:53 41° W 19:09:53 41° W
Cosmos 1605 Rocket 4.1 19:14:18 10° N 19:20:32 71° W 19:26:38 10° S
ATLAS 3B CENTAUR R/B 3.2 19:03:06 10° W 19:21:16 71° SSW 19:23:21 52° SE
Cosmos 1943 Rocket 3.9 19:16:57 10° S 19:18:47 21° SSE 19:18:47 21° SSE
Gbstr 26 Del rocket 4.4 19:33:38 10° SW 19:41:48 80° NW 19:41:59 80° NNW
